• In Romania
  • List of Countries
  • For 7 days
  • Water Temperature
  • Satellite Maps
  • Weather Map
  • Weather Widgets
  • user-avatar
    Login

    Hourly Weather Pomorie

    Today, 22 February, Thursday

    Time Temperature Precipitation Wind Pressure Humidity
    00:00 +4°C° 0.1 mm 6 mps 760 mmHg 92%
    01:00 +4°C° 0.1 mm 6 mps 760 mmHg 92%
    02:00 +4°C° 0.1 mm 6 mps 760 mmHg 92%
    03:00 +3°C° 0.5 mm 6 mps 760 mmHg 92%
    04:00 +3°C° 0.5 mm 6 mps 759 mmHg 92%
    05:00 +3°C° 0.5 mm 6 mps 759 mmHg 93%
    06:00 +3°C° 2.1 mm 6 mps 759 mmHg 93%
    07:00 +3°C° 2.1 mm 6 mps 759 mmHg 94%
    08:00 +3°C° 2.1 mm 6 mps 759 mmHg 94%
    09:00 +3°C° 1 mm 6 mps 759 mmHg 94%
    10:00 +4°C° 1 mm 6 mps 760 mmHg 93%
    11:00 +4°C° 1 mm 6 mps 760 mmHg 92%
    12:00 +4°C° 0.4 mm 6 mps 760 mmHg 92%
    13:00 +4°C° 0.4 mm 6 mps 760 mmHg 91%
    14:00 +5°C° 0.4 mm 6 mps 760 mmHg 91%
    15:00 +5°C° 0.1 mm 5 mps 760 mmHg 91%
    16:00 +5°C° 0.1 mm 5 mps 760 mmHg 92%
    17:00 +5°C° 0.1 mm 5 mps 760 mmHg 92%
    18:00 +5°C° 0 mm 5 mps 760 mmHg 93%
    19:00 +5°C° 0 mm 5 mps 760 mmHg 93%
    20:00 +3°C° 0 mm 5 mps 761 mmHg 93%
    21:00 +3°C° 0 mm 5 mps 761 mmHg 93%
    22:00 +3°C° 0 mm 5 mps 761 mmHg 93%
    23:00 +4°C° 0 mm 4 mps 761 mmHg 93%

    Tomorrow, 23 February, Friday

    Time Temperature Precipitation Wind Pressure Humidity
    00:00 +4°C° 0 mm 4 mps 761 mmHg 93%
    01:00 +4°C° 0 mm 4 mps 762 mmHg 93%
    02:00 +4°C° 0 mm 4 mps 762 mmHg 93%
    03:00 +2°C° 0 mm 5 mps 762 mmHg 93%
    04:00 +2°C° 0 mm 5 mps 762 mmHg 94%
    05:00 +2°C° 0 mm 5 mps 762 mmHg 94%
    06:00 +2°C° 0 mm 5 mps 762 mmHg 93%
    07:00 +2°C° 0 mm 5 mps 762 mmHg 93%
    08:00 +3°C° 0 mm 4 mps 763 mmHg 92%
    09:00 +2°C° 0 mm 5 mps 763 mmHg 90%
    10:00 +3°C° 0 mm 5 mps 763 mmHg 87%
    11:00 +3°C° 0 mm 5 mps 763 mmHg 85%
    12:00 +5°C° 0 mm 5 mps 763 mmHg 83%
    13:00 +5°C° 0 mm 5 mps 763 mmHg 81%
    14:00 +6°C° 0 mm 5 mps 763 mmHg 79%
    15:00 +5°C° 0 mm 5 mps 763 mmHg 80%
    16:00 +5°C° 0 mm 5 mps 763 mmHg 81%
    17:00 +5°C° 0 mm 5 mps 763 mmHg 82%
    18:00 +5°C° 0 mm 4 mps 763 mmHg 83%
    19:00 +4°C° 0 mm 4 mps 763 mmHg 85%
    20:00 +4°C° 0 mm 4 mps 763 mmHg 86%
    21:00 +4°C° 0 mm 4 mps 763 mmHg 87%
    22:00 +4°C° 0 mm 3 mps 763 mmHg 88%
    23:00 +3°C° 0 mm 3 mps 764 mmHg 89%

    Day after tomorrow, 24 February, Saturday

    Time Temperature Precipitation Wind Pressure Humidity
    00:00 +3°C° 0 mm 3 mps 763 mmHg 90%
    01:00 +3°C° 0 mm 3 mps 763 mmHg 91%
    02:00 +2°C° 0 mm 3 mps 763 mmHg 92%
    03:00 +2°C° 0 mm 3 mps 763 mmHg 92%
    04:00 +3°C° 0 mm 2 mps 763 mmHg 93%
    05:00 +2°C° 0 mm 2 mps 762 mmHg 93%
    06:00 +3°C° 0 mm 2 mps 762 mmHg 93%
    07:00 +3°C° 0 mm 2 mps 762 mmHg 92%
    08:00 +3°C° 0 mm 2 mps 763 mmHg 91%
    09:00 +4°C° 0 mm 2 mps 762 mmHg 86%
    10:00 +5°C° 0 mm 2 mps 762 mmHg 82%
    11:00 +5°C° 0 mm 3 mps 762 mmHg 78%
    12:00 +7°C° 0 mm 3 mps 762 mmHg 77%
    13:00 +7°C° 0 mm 3 mps 761 mmHg 77%
    14:00 +7°C° 0 mm 3 mps 761 mmHg 77%
    15:00 +7°C° 0 mm 3 mps 761 mmHg 78%
    16:00 +7°C° 0 mm 3 mps 761 mmHg 80%
    17:00 +5°C° 0 mm 3 mps 761 mmHg 81%
    18:00 +5°C° 0 mm 4 mps 761 mmHg 84%
    19:00 +4°C° 0 mm 4 mps 761 mmHg 86%
    20:00 +4°C° 0 mm 4 mps 761 mmHg 88%
    21:00 +4°C° 0 mm 4 mps 761 mmHg 88%
    22:00 +3°C° 0 mm 4 mps 761 mmHg 88%
    23:00 +3°C° 0 mm 4 mps 761 mmHg 88%

    25 February, Sunday

    Time Temperature Precipitation Wind Pressure Humidity
    00:00 +3°C° 0 mm 4 mps 761 mmHg 89%
    01:00 +3°C° 0 mm 4 mps 761 mmHg 89%
    02:00 +3°C° 0 mm 4 mps 761 mmHg 89%
    03:00 +3°C° 0.1 mm 4 mps 761 mmHg 90%
    04:00 +3°C° 0.1 mm 4 mps 761 mmHg 90%
    05:00 +3°C° 0.1 mm 4 mps 761 mmHg 91%
    06:00 +2°C° 0.1 mm 5 mps 761 mmHg 91%
    07:00 +1°C° 0.1 mm 5 mps 761 mmHg 90%
    08:00 +1°C° 0.1 mm 6 mps 761 mmHg 89%
    09:00 +1°C° 0.2 mm 6 mps 761 mmHg 88%
    10:00 0°C° 0.2 mm 7 mps 761 mmHg 86%
    11:00 0°C° 0.2 mm 8 mps 762 mmHg 84%
    12:00 0°C° 0.2 mm 8 mps 761 mmHg 85%
    13:00 -1°C° 0.2 mm 8 mps 761 mmHg 85%
    14:00 -1°C° 0.2 mm 9 mps 761 mmHg 86%
    15:00 -3°C° 0.2 mm 9 mps 762 mmHg 86%
    16:00 -3°C° 0.2 mm 9 mps 762 mmHg 86%
    17:00 -3°C° 0.2 mm 9 mps 762 mmHg 86%
    18:00 -3°C° 0.1 mm 9 mps 762 mmHg 86%
    19:00 -4°C° 0.1 mm 9 mps 763 mmHg 87%
    20:00 -4°C° 0.1 mm 8 mps 763 mmHg 87%
    21:00 -4°C° 0.1 mm 8 mps 763 mmHg 87%
    22:00 -4°C° 0.1 mm 8 mps 763 mmHg 87%
    23:00 -4°C° 0.1 mm 8 mps 763 mmHg 87%

    26 February, Monday

    Time Temperature Precipitation Wind Pressure Humidity
    00:00 -4°C° 0.1 mm 8 mps 763 mmHg 87%
    01:00 -4°C° 0.1 mm 8 mps 763 mmHg 87%
    02:00 -4°C° 0.1 mm 9 mps 763 mmHg 87%
    03:00 -4°C° 0.1 mm 9 mps 763 mmHg 87%
    04:00 -4°C° 0.1 mm 9 mps 763 mmHg 87%
    05:00 -4°C° 0.1 mm 9 mps 762 mmHg 87%
    06:00 -3°C° 0.1 mm 9 mps 762 mmHg 87%
    07:00 -3°C° 0.1 mm 10 mps 762 mmHg 87%
    08:00 -3°C° 0.1 mm 10 mps 762 mmHg 87%
    09:00 -3°C° 0.1 mm 10 mps 762 mmHg 85%
    10:00 -3°C° 0.1 mm 10 mps 762 mmHg 84%
    11:00 -2°C° 0.1 mm 10 mps 762 mmHg 83%
    12:00 -2°C° 0.2 mm 10 mps 761 mmHg 83%
    13:00 -2°C° 0.2 mm 10 mps 761 mmHg 83%
    14:00 -2°C° 0.2 mm 10 mps 760 mmHg 84%
    15:00 -2°C° 0.2 mm 10 mps 760 mmHg 85%
    16:00 -2°C° 0.2 mm 10 mps 760 mmHg 86%
    17:00 -2°C° 0.2 mm 10 mps 759 mmHg 87%
    18:00 -2°C° 0.3 mm 10 mps 759 mmHg 88%
    19:00 -2°C° 0.3 mm 10 mps 759 mmHg 89%
    20:00 -2°C° 0.3 mm 10 mps 759 mmHg 91%
    21:00 -2°C° 0.3 mm 10 mps 759 mmHg 91%
    22:00 -2°C° 0.3 mm 10 mps 758 mmHg 91%
    23:00 -2°C° 0.3 mm 10 mps 758 mmHg 91%

    27 February, Tuesday

    Time Temperature Precipitation Wind Pressure Humidity
    00:00 -1°C° 0.3 mm 9 mps 758 mmHg 92%
    01:00 -1°C° 0.3 mm 8 mps 757 mmHg 92%
    02:00 -1°C° 0.3 mm 8 mps 757 mmHg 93%
    03:00 -1°C° 0.2 mm 7 mps 757 mmHg 94%
    04:00 -1°C° 0.2 mm 7 mps 757 mmHg 95%
    05:00 +1°C° 0.2 mm 6 mps 756 mmHg 96%
    06:00 +1°C° 0.1 mm 6 mps 756 mmHg 96%
    07:00 +1°C° 0.1 mm 5 mps 756 mmHg 97%
    08:00 +1°C° 0.1 mm 5 mps 756 mmHg 97%
    09:00 +2°C° 0.1 mm 5 mps 756 mmHg 96%
    10:00 +3°C° 0.1 mm 5 mps 756 mmHg 96%
    11:00 +3°C° 0.1 mm 5 mps 756 mmHg 95%
    12:00 +5°C° 0.1 mm 4 mps 756 mmHg 94%
    13:00 +5°C° 0.1 mm 4 mps 755 mmHg 93%
    14:00 +7°C° 0.1 mm 3 mps 755 mmHg 92%
    15:00 +7°C° 0 mm 3 mps 755 mmHg 93%
    16:00 +6°C° 0 mm 4 mps 755 mmHg 93%
    17:00 +6°C° 0 mm 4 mps 755 mmHg 93%
    18:00 +5°C° 0 mm 4 mps 755 mmHg 94%
    19:00 +5°C° 0 mm 4 mps 755 mmHg 95%
    20:00 +4°C° 0 mm 4 mps 755 mmHg 96%
    21:00 +4°C° 0 mm 4 mps 755 mmHg 96%
    22:00 +4°C° 0 mm 4 mps 756 mmHg 96%
    23:00 +4°C° 0 mm 4 mps 756 mmHg 97%
    Show more